www.pogodaiklimat.ru

Погода и климат >> Архив погоды >> Боливия >> San Joaquin


ПОГОДА в San Joaquin

  • Прогноз погоды в San Joaquin
  • Монитор погоды в San Joaquin
  • Климат города

АРХИВ ПОГОДЫ в San Joaquin

Время (UTC), дата Ветер
(напр.,м/с)
 
Видим.   Явления Облачность Т
(С)
Тd
(С)
f
(%)
Тe
(С)
Тes
(С)
Комфортность P
(гПа)
Po
(гПа)
Тmin
(С)
Tmax
(С)
R
(мм)
R24
(мм)
S
(см)
12 15.10 С 2 6000 м дым 4/0 2000 м
[Ac trans Ci fib]
+26.3 +24.2 88 +37 +40 очень
душно
1012.0 995.9 +23.6
15 15.10 СЗ 4 15 км 4/4 600 м
[Cu med, cong]
+32.6 +23.2 58 +43 +51 опасность
перегрева
1012.7 996.6
18 15.10 СЗ 4 8000 м дым 5/5 500 м
[Cu med, cong]
+34.3 +22.5 50 +43 +49 опасность
перегрева
1009.1 993.2
21 15.10 СЗ 3 8000 м дым 6/4 500 м
[Cu med, cong Ci]
+33.5 +23.5 56 +44 +46 опасность
перегрева
1006.3 990.3 +36.2
12 16.10 СЗ 2 8000 м дым 8/0
[Ci]
+26.8 +24.1 85 +37 +41 очень
душно
1008.6 992.5 +23.1
15 16.10 СЗ 6 8000 м дым 6/4 500 м
[Cu med, cong Ci]
+34.0 +23.3 54 +45 +49 опасность
перегрева
1009.0 993.1
18 16.10 СЗ 6 8000 м дым 8/5 500 м
[Cu med, cong Ci]
+35.1 +22.9 49 +45 +48 опасность
перегрева
1006.4 990.5
21 16.10 СЗ 5 8000 м дым 8/4 500 м
[Cb cap Ci]
+34.5 +22.3 49 +43 +44 опасность
перегрева
1004.6 988.8 +36.3
12 17.10 С 2 15 км 8/0
[Ci]
+28.0 +24.7 82 +40 +44 очень
душно
1008.4 992.3 +24.3
15 17.10 СЗ 4 15 км 8/3 500 м
[Cu med, cong Ci]
+33.8 +24.1 57 +46 +54 опасность
перегрева
1010.0 994.0
18 17.10 СЗ 5 8000 м дым 8/5 500 м
[Cb cap Ci]
+36.3 +24.3 50 +48 +52 опасность
перегрева
1006.4 990.5
21 17.10 штиль 0 8000 м дым 9/3 500 м
[Cu med, cong Ci]
+32.7 +24.7 63 +46 +48 опасность
перегрева
1004.7 988.8 +37.6
12 18.10 штиль 0 8000 м дым 9/0
[Ci]
+25.6 +23.7 89 +35 +40 очень
душно
1008.9 992.8 +23.1
15 18.10 СЗ 4 8000 м дым 9/0
[Ci]
+32.0 +22.5 57 +41 +52 опасность
перегрева
1009.9 993.9
18 18.10 СЗ 4 8000 м дым 8/3 500 м
[Cu med, cong Ci]
+35.0 +22.8 49 +45 +52 опасность
перегрева
1007.2 991.3
21 18.10 СЗ 3 15 км 8/4 500 м
[Cb cap Ci]
+35.0 +23.5 51 +46 +47 опасность
перегрева
1004.7 989.0 +36.6
12 19.10 С 3 15 км 9/3 750 м
[Sc Ac und]
+25.7 +24.1 91 +36 +37 очень
душно
1008.5 992.5 +23.5 3
15 19.10 С 3 15 км 9/3 750 м
[Sc Ac und]
+28.8 +24.4 77 +40 +45 очень
душно
1009.8 993.8
18 19.10 СЗ 2 15 км 9/1 600 м
[Cu hum Ac trans]
+30.1 +24.8 73 +43 +50 опасность
перегрева
1008.0 992.0
21 19.10 СЗ 5 15 км 8/1 600 м
[Cu hum Ci]
+32.5 +23.9 61 +44 +46 опасность
перегрева
1004.5 988.6 +33.6
12 20.10 ЮВ 3 15 км 9/3 450 м
[Sc Ac trans Ci]
+24.2 +23.8 98 +33 +34 очень
душно
1008.3 992.2 +21.3 57
18 20.10 штиль 0 15 км 10/5 450 м
[Sc As op]
+27.8 +23.6 78 +38 +40 очень
душно
1008.1 992.0
21 20.10 СЗ 3 15 км 9/3 500 м
[Cu med, cong Ac trans Ci]
+27.8 +24.1 80 +39 +40 очень
душно
1006.1 990.0 +29.7
12 21.10 СЗ 2 8000 м дым 9/3 240 м
[Sc Ac trans Ci]
+24.5 +23.9 96 +33 +35 очень
душно
1008.7 992.5 +22.6
15 21.10 СЗ 2 15 км 8/8 500 м
[Cu med, cong]
+29.5 +24.9 76 +42 +46 опасность
перегрева
1009.8 993.7
18 21.10 СЗ 4 6000 м гроза без осадков туман 8/8 500 м
[Cb cap]
+29.0 +25.7 82 +43 +45 опасность
перегрева
1006.6 990.5
21 21.10 Ю 3 8000 м осадки на расстоянии 9/4 500 м
[Cb cap Ci]
+28.0 +24.7 82 +40 +41 очень
душно
1004.6 988.7 +32.5

 

Местоположение метеостанции San Joaquin (Боливия): широта -13.06 долгота -64.81 высота над уровнем моря 140 м.

В архиве по умолчанию представлена погода в San Joaquin за последнюю неделю. Архивные данные за месяц целиком и за предыдущие месяцы, начиная с января 2011 года, Вы можете получить, выбрав интересующий диапазон дат из раскрывающегося списка и нажав кнопку "Ввод!".


*Определитесь, кто Вы:
робот инопланетянин человек

Внимание! Время в таблицах - всемирное. Для получения местного времени необходимо прибавить поправку, которая в San Joaquin равна -4 ч.

Смотрите также архив погоды в соседних городах и на ближайших метеорологических станциях:

Погода в San Ramon (Боливия) (29 км)
Погода в Magdalena (Боливия) (82 км)
Погода в Baures (Боливия) (102 км)
Погода в Santa Ana (Боливия) (103 км)
Погода в Trinidad (Боливия) (195 км)
Погода в San Ignacio De Moxo (Боливия) (223 км)
Погода в Santa Rosa (Боливия) (257 км)
Погода в Riberalta (Боливия) (269 км)
Погода в San Borja (Боливия) (298 км)
Погода в Reyes (Боливия) (311 км)

Пояснения к столбцам:

Ветер - указаны скорость ветра в м/с - средняя за 10 мин, порывы в срок и между сроками (в фигурных скобках) и направление, откуда дует ветер: С - северный, СВ - северо-восточный, В - восточный, ЮВ - юго-восточный, Ю - южный, ЮЗ - юго-западный, З - западный, СЗ - северо-западный.
Видимость - горизонтальная дальность видимости в метрах или километрах. При видимости от 1 до 10 км при отсутствии осадков обычно наблюдается дымка, при ухудшении видимости до 1 км и менее - туман. В сухую погоду видимость может ухудшаться дымом, пылью или мглою.
Явления - указаны атмосферные явления, наблюдавшиеся в срок или в последний час перед сроком; фигурными скобками обозначены явления, наблюдавшиеся между сроками (за 1-3 часа до срока); квадратными скобками обозначены град или гололедные отложения с указанием их диаметра в мм.
Облачность - указаны через наклонную черту общая и нижняя облачность в баллах и высота нижней границы облаков в метрах; квадратными скобками обозначены формы облаков: Ci - перистые, Cs - перисто-слоистые, Cc - перисто-кучевые, Ac - высококучевые, As - высокослоистые, Sc - слоисто-кучевые, Ns - слоисто-дождевые, Cu - кучевые, Cb - кучево-дождевые. Подробнее классификацию облаков см. в Атласе облаков (PDF).
T - Температура воздуха - температура, измеренная на высоте 2 м над землей.
Td - Температура точки росы - температура, при понижении до которой содержащийся в воздухе водяной пар достигнет насыщения.
f - Относительная влажность воздуха - влажноcть воздуха, измеренная на высоте 2 м над землей.
Te - Эффективная температура - температура, которую ощущает одетый по сезону человек в тени. Характеристика душности погоды. При расчете учитывается влияние влажности воздуха и скорости ветра на теплоощущения человека.
Tes - Эффективная температура на солнце - температура, которую ощущает человек, с поправкой на солнечный нагрев. Характеристика знойности погоды. Зависит от высоты солнца над горизонтом, облачности и скорости ветра. Ночью, в пасмурную погоду, а также при ветре 12 м/с и более поправка равна нулю.
P - Атмосферное давление - приведенное к уровню моря атмосферное давление.
Po - Атмосферное давление - измеренное на уровне метеостанции атмосферное давление.
Tmin - Минимальная температура - минимум температуры воздуха на высоте 2 м над землей.
Tmax - Максимальная температура - максимум температуры воздуха на высоте 2 м над землей.
R - Количество осадков - Количество выпавших осадков за период времени, мм. При наведении курсора мыши на число - период времени, за который выпало указанное количество осадков.
R24 - Количество осадков - Количество выпавших осадков за 24 часа, мм.
S - Снежный покров - Высота снежного покрова, см. При наведении курсора мыши на число - состояние снежного покрова и степень покрытия местности в баллах.